CES5541 ZSJN-ZSYT

Flight info

Callsign CES5541
Flight time N/A
Altitude 29100
Route DYN81D DYN W4 HCH HCH82A
Aircraft B738/M-SDE2E3FGHIRWXY/LB1

Departure

Time N/A
Airport Jinan Yaoqiang International Airport (ZSJN)

Arrival

Time 2026-04-25 10:35
Airport Yantai Penglai International Airport (ZSYT)
Time Latitude Longitude Altitude Speed Heading
2026-04-25 10:13 37.41747 120.83707 10040 ft 340 kts 139°
2026-04-25 10:13 37.40280 120.86020 9464 ft 339 kts 120°
2026-04-25 10:13 37.39471 120.88761 8906 ft 338 kts 103°
2026-04-25 10:14 37.39225 120.91502 8374 ft 337 kts 92°
2026-04-25 10:14 37.39443 120.94402 7804 ft 337 kts 77°
2026-04-25 10:14 37.40382 120.97127 7233 ft 337 kts 58°
2026-04-25 10:14 37.41895 120.99325 6671 ft 336 kts 43°
2026-04-25 10:15 37.43766 121.01087 6100 ft 334 kts 34°
2026-04-25 10:15 37.45511 121.02994 5544 ft 331 kts 48°
2026-04-25 10:15 37.46982 121.05209 4976 ft 330 kts 53°
2026-04-25 10:15 37.48376 121.07474 4414 ft 329 kts 54°
2026-04-25 10:16 37.49696 121.09808 3849 ft 328 kts 59°
2026-04-25 10:16 37.50833 121.12263 3284 ft 326 kts 64°
2026-04-25 10:16 37.51614 121.14900 2891 ft 314 kts 83°
2026-04-25 10:16 37.51664 121.17553 2639 ft 298 kts 100°
2026-04-25 10:17 37.50961 121.19899 2388 ft 278 kts 131°
2026-04-25 10:17 37.49548 121.21391 2290 ft 257 kts 155°
2026-04-25 10:17 37.47918 121.21911 2287 ft 232 kts 184°
2026-04-25 10:17 37.46567 121.21132 2267 ft 212 kts 229°
2026-04-25 10:18 37.46033 121.19412 2353 ft 212 kts 241°
2026-04-25 10:18 37.45178 121.17927 2888 ft 216 kts 228°
2026-04-25 10:18 37.44172 121.16460 3426 ft 222 kts 226°
2026-04-25 10:18 37.43134 121.15041 3899 ft 223 kts 225°
2026-04-25 10:19 37.42059 121.13612 4377 ft 226 kts 226°
2026-04-25 10:19 37.41499 121.11763 4608 ft 233 kts 271°
2026-04-25 10:19 37.42238 121.09957 4922 ft 246 kts 320°
2026-04-25 10:19 37.43841 121.09328 5337 ft 250 kts 358°
2026-04-25 10:20 37.45543 121.09792 5731 ft 256 kts 32°
2026-04-25 10:20 37.46913 121.11108 6232 ft 242 kts 41°
2026-04-25 10:20 37.48140 121.12511 6625 ft 233 kts 45°
2026-04-25 10:20 37.49287 121.13953 6962 ft 233 kts 47°
2026-04-25 10:21 37.50453 121.15366 7285 ft 233 kts 40°
2026-04-25 10:21 37.51757 121.16602 7669 ft 232 kts 36°
2026-04-25 10:21 37.53065 121.17779 8070 ft 234 kts 36°
2026-04-25 10:21 37.54412 121.18980 8437 ft 243 kts 36°
2026-04-25 10:22 37.55814 121.20223 8913 ft 251 kts 36°
2026-04-25 10:22 37.57264 121.21504 9442 ft 256 kts 36°
2026-04-25 10:22 37.58852 121.22565 9907 ft 263 kts 17°
2026-04-25 10:22 37.60690 121.22744 10408 ft 267 kts 355°
2026-04-25 10:23 37.62517 121.22478 10977 ft 268 kts 352°
2026-04-25 10:23 37.64392 121.22161 11531 ft 271 kts 352°
2026-04-25 10:23 37.66271 121.21845 12051 ft 273 kts 352°
2026-04-25 10:23 37.68151 121.21529 12549 ft 276 kts 352°
2026-04-25 10:24 37.70067 121.21201 13045 ft 277 kts 352°
2026-04-25 10:24 37.71954 121.20870 13630 ft 275 kts 352°
2026-04-25 10:24 37.73921 121.20520 13367 ft 299 kts 352°
2026-04-25 10:24 37.76041 121.20142 12293 ft 323 kts 351°
2026-04-25 10:25 37.78281 121.19660 11456 ft 332 kts 343°
2026-04-25 10:25 37.80357 121.18398 10804 ft 331 kts 321°
2026-04-25 10:25 37.81906 121.16297 10165 ft 329 kts 301°
2026-04-25 10:25 37.83011 121.13746 9518 ft 330 kts 294°
2026-04-25 10:26 37.83965 121.11130 8870 ft 331 kts 292°
2026-04-25 10:26 37.84904 121.08460 8216 ft 332 kts 292°
2026-04-25 10:26 37.85831 121.05800 7572 ft 333 kts 291°
2026-04-25 10:26 37.86765 121.03117 6924 ft 333 kts 291°
2026-04-25 10:27 37.87695 121.00459 6278 ft 333 kts 291°
2026-04-25 10:27 37.88388 120.97720 5621 ft 327 kts 275°
2026-04-25 10:27 37.88147 120.94899 4944 ft 318 kts 248°
2026-04-25 10:27 37.86965 120.92647 4300 ft 301 kts 222°
2026-04-25 10:28 37.85215 120.91368 3652 ft 290 kts 195°
2026-04-25 10:28 37.83260 120.91363 3010 ft 284 kts 165°
2026-04-25 10:28 37.81585 120.92645 2397 ft 281 kts 134°
2026-04-25 10:28 37.80772 120.94784 2154 ft 269 kts 100°
2026-04-25 10:29 37.81046 120.97035 2141 ft 253 kts 63°
2026-04-25 10:29 37.82188 120.98704 2167 ft 251 kts 40°
2026-04-25 10:29 37.83574 121.00060 2168 ft 252 kts 39°
2026-04-25 10:29 37.84652 121.01693 2101 ft 236 kts 72°
2026-04-25 10:30 37.84759 121.03645 2147 ft 216 kts 111°
2026-04-25 10:30 37.84184 121.05355 2160 ft 211 kts 121°
2026-04-25 10:30 37.83501 121.07006 2162 ft 210 kts 122°
2026-04-25 10:30 37.82835 121.08604 2165 ft 197 kts 122°
2026-04-25 10:31 37.82024 121.09864 2141 ft 181 kts 155°
2026-04-25 10:31 37.80833 121.10026 2150 ft 174 kts 202°
2026-04-25 10:31 37.79858 121.09139 2159 ft 175 kts 220°
2026-04-25 10:31 37.78841 121.08292 2149 ft 172 kts 205°
2026-04-25 10:32 37.77665 121.08074 2154 ft 175 kts 175°
2026-04-25 10:32 37.76463 121.08252 2144 ft 175 kts 187°
2026-04-25 10:32 37.75390 121.07604 2125 ft 175 kts 220°
2026-04-25 10:32 37.74407 121.06715 1904 ft 173 kts 206°
2026-04-25 10:33 37.73323 121.06085 1700 ft 171 kts 209°
2026-04-25 10:33 37.72395 121.05188 1579 ft 160 kts 221°
2026-04-25 10:33 37.71623 121.04264 1392 ft 142 kts 221°
2026-04-25 10:33 37.70906 121.03451 1144 ft 137 kts 219°
2026-04-25 10:34 37.70195 121.02645 1018 ft 134 kts 220°
2026-04-25 10:34 37.69497 121.01840 819 ft 135 kts 219°
2026-04-25 10:34 37.68798 121.01047 635 ft 136 kts 219°
2026-04-25 10:34 37.68100 121.00253 449 ft 136 kts 219°
2026-04-25 10:35 37.67392 120.99448 270 ft 136 kts 219°
2026-04-25 10:35 37.66687 120.98645 161 ft 128 kts 220°
2026-04-25 10:35 37.66166 120.98054 160 ft 71 kts 220°
2026-04-25 10:35 37.65924 120.97785 160 ft 25 kts 209°
2026-04-25 10:36 37.65812 120.97721 160 ft 16 kts 198°
2026-04-25 10:36 37.65704 120.97684 160 ft 15 kts 192°
2026-04-25 10:36 37.65595 120.97647 160 ft 15 kts 201°
2026-04-25 10:36 37.65500 120.97622 160 ft 13 kts 141°
2026-04-25 10:37 37.65437 120.97710 160 ft 13 kts 133°
2026-04-25 10:37 37.65383 120.97790 160 ft 9 kts 130°